Time,TemperatureF,DewpointF,PressureIn,WindDirection,WindDirectionDegrees,WindSpeedMPH,WindSpeedGustMPH,Humidity,HourlyPrecipIn,Conditions,Clouds,dailyrainin,SoftwareType,DateUTC
2013-08-04 00:02:00,85.0,-99.9,30.05,SW,235,11.0,12.0,-999,-99.99,,,-99.99,,2013-08-04 05:02:00,
2013-08-04 00:12:00,85.0,-99.9,30.05,WSW,237,12.0,14.0,-999,-99.99,,,-99.99,,2013-08-04 05:12:00,
2013-08-04 00:22:00,85.0,-99.9,30.04,WSW,248,12.0,13.0,-999,-99.99,,,-99.99,,2013-08-04 05:22:00,
2013-08-04 00:32:00,85.0,-99.9,30.04,WSW,246,12.0,14.0,-999,-99.99,,,-99.99,,2013-08-04 05:32:00,
2013-08-04 00:42:00,85.0,-99.9,30.04,WSW,247,12.0,14.0,-999,-99.99,,,-99.99,,2013-08-04 05:42:00,
2013-08-04 00:52:00,85.0,-99.9,30.04,WSW,250,12.0,13.0,-999,-99.99,,,-99.99,,2013-08-04 05:52:00,
2013-08-04 01:02:00,85.0,-99.9,30.04,WSW,253,12.0,13.0,-999,-99.99,,,-99.99,,2013-08-04 06:02:00,
2013-08-04 01:12:00,85.0,-99.9,30.04,WSW,248,12.0,13.0,-999,-99.99,,,-99.99,,2013-08-04 06:12:00,
2013-08-04 01:22:00,85.0,-99.9,30.04,WSW,243,12.0,14.0,-999,-99.99,,,-99.99,,2013-08-04 06:22:00,
2013-08-04 01:32:00,85.0,-99.9,30.04,WSW,244,13.0,14.0,-999,-99.99,,,-99.99,,2013-08-04 06:32:00,
2013-08-04 01:43:00,85.0,-99.9,30.04,WSW,243,13.0,14.0,-999,-99.99,,,-99.99,,2013-08-04 06:43:00,
2013-08-04 01:52:00,85.0,-99.9,30.04,WSW,245,13.0,14.0,-999,-99.99,,,-99.99,,2013-08-04 06:52:00,
2013-08-04 02:02:00,85.0,-99.9,30.04,WSW,250,12.0,13.0,-999,-99.99,,,-99.99,,2013-08-04 07:02:00,
2013-08-04 02:12:00,85.0,-99.9,30.03,WSW,252,12.0,13.0,-999,-99.99,,,-99.99,,2013-08-04 07:12:00,
2013-08-04 02:22:00,85.0,-99.9,30.03,West,261,12.0,14.0,-999,-99.99,,,-99.99,,2013-08-04 07:22:00,
2013-08-04 02:33:00,85.0,-99.9,30.02,WSW,249,12.0,13.0,-999,-99.99,,,-99.99,,2013-08-04 07:33:00,
2013-08-04 02:43:00,85.0,-99.9,30.02,WSW,250,12.0,14.0,-999,-99.99,,,-99.99,,2013-08-04 07:43:00,
2013-08-04 02:53:00,85.0,-99.9,30.02,WSW,253,13.0,14.0,-999,-99.99,,,-99.99,,2013-08-04 07:53:00,
2013-08-04 03:02:00,85.0,-99.9,30.02,WSW,255,13.0,14.0,-999,-99.99,,,-99.99,,2013-08-04 08:02:00,
2013-08-04 03:12:00,86.0,-99.9,30.01,West,277,13.0,14.0,-999,-99.99,,,-99.99,,2013-08-04 08:12:00,
2013-08-04 03:23:00,86.0,-99.9,30.01,West,272,12.0,14.0,-999,-99.99,,,-99.99,,2013-08-04 08:23:00,
2013-08-04 03:32:00,86.0,-99.9,30.01,West,276,13.0,14.0,-999,-99.99,,,-99.99,,2013-08-04 08:32:00,
2013-08-04 03:43:00,86.0,-99.9,30.01,West,269,12.0,13.0,-999,-99.99,,,-99.99,,2013-08-04 08:43:00,
2013-08-04 03:53:00,86.0,-99.9,30.01,West,270,12.0,13.0,-999,-99.99,,,-99.99,,2013-08-04 08:53:00,
2013-08-04 04:02:00,85.0,-99.9,30.01,West,268,12.0,14.0,-999,-99.99,,,-99.99,,2013-08-04 09:02:00,
2013-08-04 04:12:00,85.0,-99.9,30.01,West,263,13.0,14.0,-999,-99.99,,,-99.99,,2013-08-04 09:12:00,
2013-08-04 04:22:00,85.0,-99.9,30.02,West,269,13.0,15.0,-999,-99.99,,,-99.99,,2013-08-04 09:22:00,
2013-08-04 04:32:00,85.0,-99.9,30.01,West,275,13.0,14.0,-999,-99.99,,,-99.99,,2013-08-04 09:32:00,
2013-08-04 04:43:00,85.0,-99.9,30.02,WNW,301,12.0,14.0,-999,-99.99,,,-99.99,,2013-08-04 09:43:00,
2013-08-04 04:52:00,86.0,-99.9,30.02,WNW,296,11.0,13.0,-999,-99.99,,,-99.99,,2013-08-04 09:52:00,
2013-08-04 05:02:00,85.0,-99.9,30.02,WNW,297,11.0,13.0,-999,-99.99,,,-99.99,,2013-08-04 10:02:00,
2013-08-04 05:12:00,86.0,-99.9,30.02,WNW,297,12.0,13.0,-999,-99.99,,,-99.99,,2013-08-04 10:12:00,
2013-08-04 05:22:00,85.0,-99.9,30.02,NW,321,10.0,11.0,-999,-99.99,,,-99.99,,2013-08-04 10:22:00,
2013-08-04 05:32:00,84.0,-99.9,30.02,NNW,329,12.0,13.0,-999,-99.99,,,-99.99,,2013-08-04 10:32:00,
2013-08-04 05:43:00,84.0,-99.9,30.03,NW,323,12.0,14.0,-999,-99.99,,,-99.99,,2013-08-04 10:43:00,
2013-08-04 05:53:00,83.0,-99.9,30.03,NNW,328,13.0,14.0,-999,-99.99,,,-99.99,,2013-08-04 10:53:00,
2013-08-04 06:02:00,83.0,-99.9,30.03,NNW,328,13.0,15.0,-999,-99.99,,,-99.99,,2013-08-04 11:02:00,
2013-08-04 06:12:00,83.0,-99.9,30.03,NW,323,15.0,16.0,-999,-99.99,,,-99.99,,2013-08-04 11:12:00,
2013-08-04 06:22:00,83.0,-99.9,30.03,NW,319,16.0,17.0,-999,-99.99,,,-99.99,,2013-08-04 11:22:00,
2013-08-04 06:32:00,83.0,-99.9,30.03,NW,320,15.0,16.0,-999,-99.99,,,-99.99,,2013-08-04 11:32:00,
2013-08-04 06:42:00,83.0,-99.9,30.03,NW,320,15.0,17.0,-999,-99.99,,,-99.99,,2013-08-04 11:42:00,
2013-08-04 06:53:00,83.0,-99.9,30.03,NW,321,14.0,15.0,-999,-99.99,,,-99.99,,2013-08-04 11:53:00,
2013-08-04 07:02:00,83.0,-99.9,30.04,NW,321,14.0,15.0,-999,-99.99,,,-99.99,,2013-08-04 12:02:00,
2013-08-04 07:13:00,83.0,-99.9,30.04,NW,320,15.0,17.0,-999,-99.99,,,-99.99,,2013-08-04 12:13:00,
2013-08-04 07:22:00,83.0,-99.9,30.05,NW,319,13.0,14.0,-999,-99.99,,,-99.99,,2013-08-04 12:22:00,
2013-08-04 07:33:00,83.0,-99.9,30.05,NW,323,13.0,14.0,-999,-99.99,,,-99.99,,2013-08-04 12:33:00,
2013-08-04 07:43:00,82.0,-99.9,30.06,NW,323,15.0,18.0,-999,-99.99,,,-99.99,,2013-08-04 12:43:00,
2013-08-04 07:53:00,82.0,-99.9,30.06,NW,326,16.0,18.0,-999,-99.99,,,-99.99,,2013-08-04 12:53:00,
2013-08-04 08:02:00,83.0,-99.9,30.06,NW,326,15.0,16.0,-999,-99.99,,,-99.99,,2013-08-04 13:02:00,
2013-08-04 08:13:00,83.0,-99.9,30.06,NW,325,13.0,15.0,-999,-99.99,,,-99.99,,2013-08-04 13:13:00,
2013-08-04 08:22:00,83.0,-99.9,30.07,NW,322,13.0,15.0,-999,-99.99,,,-99.99,,2013-08-04 13:22:00,
2013-08-04 08:32:00,83.0,-99.9,30.07,NW,321,13.0,14.0,-999,-99.99,,,-99.99,,2013-08-04 13:32:00,
2013-08-04 08:43:00,83.0,-99.9,30.07,NW,326,12.0,14.0,-999,-99.99,,,-99.99,,2013-08-04 13:43:00,
2013-08-04 08:52:00,83.0,-99.9,30.08,NW,317,11.0,13.0,-999,-99.99,,,-99.99,,2013-08-04 13:52:00,
2013-08-04 09:02:00,83.0,-99.9,30.07,NW,310,11.0,13.0,-999,-99.99,,,-99.99,,2013-08-04 14:02:00,
2013-08-04 09:12:00,84.0,-99.9,30.07,NW,314,12.0,13.0,-999,-99.99,,,-99.99,,2013-08-04 14:12:00,
2013-08-04 09:22:00,84.0,-99.9,30.07,NW,315,11.0,11.0,-999,-99.99,,,-99.99,,2013-08-04 14:22:00,
2013-08-04 09:33:00,84.0,-99.9,30.07,NW,314,11.0,12.0,-999,-99.99,,,-99.99,,2013-08-04 14:33:00,
2013-08-04 09:43:00,85.0,-99.9,30.07,NW,311,12.0,13.0,-999,-99.99,,,-99.99,,2013-08-04 14:43:00,
2013-08-04 09:53:00,85.0,-99.9,30.07,NW,315,12.0,13.0,-999,-99.99,,,-99.99,,2013-08-04 14:53:00,
2013-08-04 10:02:00,85.0,-99.9,30.07,NW,311,11.0,12.0,-999,-99.99,,,-99.99,,2013-08-04 15:02:00,
2013-08-04 10:12:00,85.0,-99.9,30.06,NW,315,11.0,12.0,-999,-99.99,,,-99.99,,2013-08-04 15:12:00,
2013-08-04 10:22:00,85.0,-99.9,30.06,NW,317,10.0,11.0,-999,-99.99,,,-99.99,,2013-08-04 15:22:00,
2013-08-04 10:32:00,85.0,-99.9,30.07,NW,315,9.0,10.0,-999,-99.99,,,-99.99,,2013-08-04 15:32:00,
2013-08-04 10:43:00,85.0,-99.9,30.07,NW,312,9.0,10.0,-999,-99.99,,,-99.99,,2013-08-04 15:43:00,
2013-08-04 10:53:00,86.0,-99.9,30.07,NW,312,10.0,11.0,-999,-99.99,,,-99.99,,2013-08-04 15:53:00,
2013-08-04 11:02:00,87.0,-99.9,30.07,NW,308,9.0,10.0,-999,-99.99,,,-99.99,,2013-08-04 16:02:00,
2013-08-04 11:12:00,87.0,-99.9,30.07,NW,309,9.0,10.0,-999,-99.99,,,-99.99,,2013-08-04 16:12:00,
2013-08-04 11:22:00,87.0,-99.9,30.06,NW,315,8.0,10.0,-999,-99.99,,,-99.99,,2013-08-04 16:22:00,
2013-08-04 11:33:00,87.0,-99.9,30.07,NW,321,7.0,9.0,-999,-99.99,,,-99.99,,2013-08-04 16:33:00,
2013-08-04 11:42:00,87.0,-99.9,30.06,NW,311,6.0,8.0,-999,-99.99,,,-99.99,,2013-08-04 16:42:00,
2013-08-04 11:53:00,88.0,-99.9,30.06,NW,309,6.0,7.0,-999,-99.99,,,-99.99,,2013-08-04 16:53:00,
2013-08-04 12:02:00,88.0,-99.9,30.06,NW,319,6.0,8.0,-999,-99.99,,,-99.99,,2013-08-04 17:02:00,
2013-08-04 12:12:00,89.0,-99.9,30.06,WNW,288,6.0,8.0,-999,-99.99,,,-99.99,,2013-08-04 17:12:00,
2013-08-04 12:22:00,88.0,-99.9,30.06,WNW,284,8.0,10.0,-999,-99.99,,,-99.99,,2013-08-04 17:22:00,
2013-08-04 12:32:00,88.0,-99.9,30.06,WNW,284,8.0,10.0,-999,-99.99,,,-99.99,,2013-08-04 17:32:00,
2013-08-04 12:43:00,88.0,-99.9,30.05,WNW,284,9.0,10.0,-999,-99.99,,,-99.99,,2013-08-04 17:43:00,
2013-08-04 12:53:00,89.0,-99.9,30.05,West,276,7.0,8.0,-999,-99.99,,,-99.99,,2013-08-04 17:53:00,
2013-08-04 13:02:00,89.0,-99.9,30.05,West,281,7.0,8.0,-999,-99.99,,,-99.99,,2013-08-04 18:02:00,
2013-08-04 13:12:00,88.0,-99.9,30.04,West,259,7.0,10.0,-999,-99.99,,,-99.99,,2013-08-04 18:12:00,
2013-08-04 13:23:00,88.0,-99.9,30.04,West,263,8.0,9.0,-999,-99.99,,,-99.99,,2013-08-04 18:23:00,
2013-08-04 13:33:00,88.0,-99.9,30.04,WSW,258,7.0,9.0,-999,-99.99,,,-99.99,,2013-08-04 18:33:00,
2013-08-04 13:43:00,89.0,-99.9,30.04,WSW,254,6.0,8.0,-999,-99.99,,,-99.99,,2013-08-04 18:43:00,
2013-08-04 13:52:00,89.0,-99.9,30.03,WSW,251,7.0,9.0,-999,-99.99,,,-99.99,,2013-08-04 18:52:00,
2013-08-04 14:02:00,89.0,-99.9,30.03,WSW,251,8.0,9.0,-999,-99.99,,,-99.99,,2013-08-04 19:02:00,
2013-08-04 14:12:00,88.0,-99.9,30.02,WSW,249,9.0,12.0,-999,-99.99,,,-99.99,,2013-08-04 19:12:00,
2013-08-04 14:22:00,89.0,-99.9,30.02,WSW,256,10.0,11.0,-999,-99.99,,,-99.99,,2013-08-04 19:22:00,
2013-08-04 14:33:00,89.0,-99.9,30.02,WSW,258,10.0,11.0,-999,-99.99,,,-99.99,,2013-08-04 19:33:00,
2013-08-04 14:44:00,89.0,-99.9,30.01,West,261,10.0,12.0,-999,-99.99,,,-99.99,,2013-08-04 19:44:00,
2013-08-04 14:53:00,89.0,-99.9,30.01,WSW,247,10.0,12.0,-999,-99.99,,,-99.99,,2013-08-04 19:53:00,
2013-08-04 15:02:00,89.0,-99.9,30.01,WSW,244,10.0,11.0,-999,-99.99,,,-99.99,,2013-08-04 20:02:00,
2013-08-04 15:13:00,89.0,-99.9,30.00,WSW,241,11.0,13.0,-999,-99.99,,,-99.99,,2013-08-04 20:13:00,
2013-08-04 15:22:00,88.0,-99.9,30.00,WSW,242,11.0,13.0,-999,-99.99,,,-99.99,,2013-08-04 20:22:00,
2013-08-04 15:33:00,88.0,-99.9,29.99,WSW,243,12.0,13.0,-999,-99.99,,,-99.99,,2013-08-04 20:33:00,
2013-08-04 15:43:00,89.0,-99.9,29.99,WSW,252,12.0,14.0,-999,-99.99,,,-99.99,,2013-08-04 20:43:00,
2013-08-04 15:53:00,89.0,-99.9,29.99,WSW,254,11.0,13.0,-999,-99.99,,,-99.99,,2013-08-04 20:53:00,
2013-08-04 16:02:00,89.0,-99.9,29.99,WSW,252,13.0,14.0,-999,-99.99,,,-99.99,,2013-08-04 21:02:00,
2013-08-04 16:12:00,89.0,-99.9,29.99,WSW,247,13.0,14.0,-999,-99.99,,,-99.99,,2013-08-04 21:12:00,
2013-08-04 16:22:00,88.0,-99.9,29.98,WSW,256,14.0,17.0,-999,-99.99,,,-99.99,,2013-08-04 21:22:00,
2013-08-04 16:32:00,88.0,-99.9,29.99,WSW,253,13.0,15.0,-999,-99.99,,,-99.99,,2013-08-04 21:32:00,
2013-08-04 16:43:00,89.0,-99.9,29.99,WSW,253,13.0,14.0,-999,-99.99,,,-99.99,,2013-08-04 21:43:00,
2013-08-04 16:53:00,88.0,-99.9,29.98,West,260,14.0,16.0,-999,-99.99,,,-99.99,,2013-08-04 21:53:00,
2013-08-04 17:02:00,88.0,-99.9,29.98,WSW,258,15.0,16.0,-999,-99.99,,,-99.99,,2013-08-04 22:02:00,
2013-08-04 17:12:00,89.0,-99.9,29.98,WSW,256,15.0,16.0,-999,-99.99,,,-99.99,,2013-08-04 22:12:00,
2013-08-04 17:22:00,89.0,-99.9,29.98,WSW,254,14.0,15.0,-999,-99.99,,,-99.99,,2013-08-04 22:22:00,
2013-08-04 17:32:00,89.0,-99.9,29.98,WSW,258,15.0,15.0,-999,-99.99,,,-99.99,,2013-08-04 22:32:00,
2013-08-04 17:43:00,88.0,-99.9,29.97,WSW,256,15.0,16.0,-999,-99.99,,,-99.99,,2013-08-04 22:43:00,
2013-08-04 17:53:00,88.0,-99.9,29.97,WSW,256,16.0,18.0,-999,-99.99,,,-99.99,,2013-08-04 22:53:00,
2013-08-04 18:02:00,89.0,-99.9,29.97,West,259,16.0,18.0,-999,-99.99,,,-99.99,,2013-08-04 23:02:00,
2013-08-04 18:12:00,89.0,-99.9,29.97,WSW,254,16.0,17.0,-999,-99.99,,,-99.99,,2013-08-04 23:12:00,
2013-08-04 18:22:00,88.0,-99.9,29.97,WSW,254,16.0,17.0,-999,-99.99,,,-99.99,,2013-08-04 23:22:00,
2013-08-04 18:32:00,88.0,-99.9,29.96,WSW,252,17.0,19.0,-999,-99.99,,,-99.99,,2013-08-04 23:32:00,
2013-08-04 18:43:00,88.0,-99.9,29.96,WSW,249,16.0,17.0,-999,-99.99,,,-99.99,,2013-08-04 23:43:00,
2013-08-04 18:53:00,88.0,-99.9,29.96,WSW,253,17.0,19.0,-999,-99.99,,,-99.99,,2013-08-04 23:53:00,
2013-08-04 19:02:00,88.0,-99.9,29.96,WSW,252,18.0,19.0,-999,-99.99,,,-99.99,,2013-08-05 00:02:00,
2013-08-04 19:12:00,88.0,-99.9,29.96,WSW,250,19.0,20.0,-999,-99.99,,,-99.99,,2013-08-05 00:12:00,
2013-08-04 19:22:00,88.0,-99.9,29.96,WSW,254,18.0,20.0,-999,-99.99,,,-99.99,,2013-08-05 00:22:00,
2013-08-04 19:33:00,87.0,-99.9,29.97,NW,309,35.0,62.0,-999,-99.99,,,-99.99,,2013-08-05 00:33:00,
2013-08-04 20:22:00,79.0,-99.9,30.00,ENE,64,4.0,6.0,-999,-99.99,,,-99.99,,2013-08-05 01:22:00,
2013-08-04 20:33:00,80.0,-99.9,30.00,East,98,0.0,2.0,-999,-99.99,,,-99.99,,2013-08-05 01:33:00,
2013-08-04 20:43:00,81.0,-99.9,30.01,SSW,212,4.0,6.0,-999,-99.99,,,-99.99,,2013-08-05 01:43:00,
2013-08-04 20:52:00,82.0,-99.9,30.01,SSW,199,6.0,6.0,-999,-99.99,,,-99.99,,2013-08-05 01:52:00,
2013-08-04 21:02:00,83.0,-99.9,30.01,SW,220,4.0,5.0,-999,-99.99,,,-99.99,,2013-08-05 02:02:00,
2013-08-04 21:12:00,83.0,-99.9,30.01,WSW,249,7.0,9.0,-999,-99.99,,,-99.99,,2013-08-05 02:12:00,
2013-08-04 21:22:00,84.0,-99.9,30.01,West,266,7.0,8.0,-999,-99.99,,,-99.99,,2013-08-05 02:22:00,
2013-08-04 21:33:00,84.0,-99.9,30.01,West,280,6.0,6.0,-999,-99.99,,,-99.99,,2013-08-05 02:33:00,
2013-08-04 21:43:00,85.0,-99.9,30.01,WSW,246,7.0,8.0,-999,-99.99,,,-99.99,,2013-08-05 02:43:00,
2013-08-04 21:53:00,85.0,-99.9,30.03,West,261,4.0,5.0,-999,-99.99,,,-99.99,,2013-08-05 02:53:00,
2013-08-04 22:02:00,85.0,-99.9,30.03,West,277,4.0,5.0,-999,-99.99,,,-99.99,,2013-08-05 03:02:00,
2013-08-04 22:12:00,85.0,-99.9,30.04,NNW,332,2.0,3.0,-999,-99.99,,,-99.99,,2013-08-05 03:12:00,
2013-08-04 22:22:00,85.0,-99.9,30.04,NNE,20,5.0,9.0,-999,-99.99,,,-99.99,,2013-08-05 03:22:00,
2013-08-04 22:32:00,85.0,-99.9,30.04,NE,46,7.0,8.0,-999,-99.99,,,-99.99,,2013-08-05 03:32:00,
2013-08-04 22:42:00,85.0,-99.9,30.04,ENE,63,7.0,8.0,-999,-99.99,,,-99.99,,2013-08-05 03:42:00,
2013-08-04 22:53:00,84.0,-99.9,30.04,ENE,61,8.0,11.0,-999,-99.99,,,-99.99,,2013-08-05 03:53:00,
2013-08-04 23:02:00,85.0,-99.9,30.04,NE,56,8.0,9.0,-999,-99.99,,,-99.99,,2013-08-05 04:02:00,
2013-08-04 23:12:00,84.0,-99.9,30.03,ENE,72,7.0,9.0,-999,-99.99,,,-99.99,,2013-08-05 04:12:00,
2013-08-04 23:22:00,84.0,-99.9,30.03,ENE,78,5.0,6.0,-999,-99.99,,,-99.99,,2013-08-05 04:22:00,
2013-08-04 23:32:00,84.0,-99.9,30.03,East,83,5.0,7.0,-999,-99.99,,,-99.99,,2013-08-05 04:32:00,
2013-08-04 23:43:00,83.0,-99.9,30.03,ESE,120,3.0,4.0,-999,-99.99,,,-99.99,,2013-08-05 04:43:00,
2013-08-04 23:52:00,84.0,-99.9,30.03,East,98,2.0,2.0,-999,-99.99,,,-99.99,,2013-08-05 04:52:00,